sat.trackr.live / text

‹ back to catalog

NUSAT-35 (WILLIAMINA)

NORAD 55048 · 2023-001AR

PAYLOAD ACTIVE UNKNOWN

§ Identity

Operator
Country
ARGN
Launch date
2023-01-03
Launch site
AFETR
Launch vehicle
Mass (kg)
RCS (m²)

External: N2YO · Heavens-Above · Gunter

§ Orbital elements

Epoch: 2026-05-25T03:35:39.325344Z

Period
93.85 min
Inclination
97.1872°
Eccentricity
0.0011881
Mean motion
15.34435506 rev/d
Perigee alt
454.5 km
Apogee alt
470.7 km
Semi-major
6,840.7 km
B*
3.9187e-4
RAAN
198.4745°
Arg perigee
174.7051°
Mean anomaly
185.4320°
Rev number
18,887

§ Raw data

NUSAT-35 (WILLIAMINA)1 55048U 23001AR  26145.14976071  .00013028  00000+0  39187-3 0  99952 55048  97.1872 198.4745 0011881 174.7051 185.4320 15.34435506188871

JSON: /api/v1/satellites/55048 · /tle

For live sub-satellite position, see the globe view (requires WebGL).

§ Visibility from observer

Set your observer location to see the next 7 days of passes ≥ 10°. The values pass through the URL so the page stays shareable.

No JS? Fill the form by hand. The geolocation button needs JavaScript.